Weather History for Paganella, Italy

Change the Weather History Date:

Saturday, May 17, 2014

  Actual Average Record
Temperature  
Mean Temperature 34 °F -  
Max Temperature 42 °F 49 °F 57 °F (1997)
Min Temperature 27 °F 36 °F 20 °F (2012)
Degree Days  
Heating Degree Days 30    
Moisture  
Dew Point 23 °F    
Average Humidity 57    
Maximum Humidity 70    
Minimum Humidity 40    
Precipitation  
Precipitation 0.00 in 0.10 in - ()
Sea Level Pressure  
Sea Level Pressure 29.99 in    
Wind  
Wind Speed 20 mph ()    
Max Wind Speed 40 mph    
Max Gust Speed -    
Visibility 6.2 miles    
Events      
Averages and records for this station are not official NWS values.
T = Trace of Precipitation, MM = Missing Value Source: Averaged Metar Reports

Daily Weather History Graph

Daily Weather History Graph

Search for Another Location

Airport:

Trip Planner

Search our weather history database for the weather conditions in past years. The results will help you decide how hot, cold, wet, or windy it might be!

Date:

Astronomy

May. 17, 2014 Rise Set
Actual Time 5:41 AM CEST 8:43 PM CEST
Civil Twilight 5:05 AM CEST 9:19 PM CEST
Nautical Twilight 4:20 AM CEST 10:05 PM CEST
Astronomical Twilight 3:25 AM CEST 11:01 PM CEST
Moon 11:28 PM CEST (5/17) 8:06 AM CEST (5/17)
Length of Visible Light 16h 13m
Length of Day
15h 02m
Waning Gibbous, 91% of the Moon is Illuminated
May 17
Waning Gibbous
May 21
Last Quarter
May 28
New
Jun 5
First Quarter
Jun 13
Full

Hourly Weather History & Observations

Time (CEST) Temp. Windchill Dew Point Humidity Pressure Visibility Wind Dir Wind Speed Gust Speed Precip Events Conditions
12:00 AM 28 °F - 19 °F 58%  in 44 mi North 40.3 mph - -  
12:55 AM 28.4 °F 11.2 °F 19.4 °F 69% 30.01 in - North 38.0 mph - N/A   Clear
1:00 AM 29 °F - 20 °F 59%  in 44 mi North 38.0 mph - -  
1:55 AM 28.4 °F 12.7 °F 19.4 °F 69% 29.98 in - North 29.9 mph - N/A   Clear
2:00 AM 28 °F - 19 °F 59%  in 44 mi North 29.9 mph - -  
2:55 AM 28.4 °F 13.3 °F 19.4 °F 69% 29.98 in - North 27.6 mph - N/A   Clear
3:00 AM 29 °F - 20 °F 57%  in 44 mi North 27.6 mph - -  
3:55 AM 28.4 °F 13.3 °F 19.4 °F 69% 29.98 in - North 27.6 mph - N/A   Clear
4:00 AM 29 °F - 19 °F 55%  in 44 mi North 27.6 mph - -  
4:55 AM 28.4 °F 13.5 °F 19.4 °F 69% 29.98 in - North 26.5 mph - N/A   Clear
5:00 AM 29 °F - 20 °F 57%  in 44 mi North 26.5 mph - -   Scattered Clouds
5:55 AM 28.4 °F 13.5 °F 19.4 °F 69% 29.95 in - North 26.5 mph - N/A   Clear
6:00 AM 29 °F - 20 °F 59%  in 44 mi North 26.5 mph - -   Partly Cloudy
6:55 AM 30.2 °F 16.2 °F 21.2 °F 69% 29.95 in - North 25.3 mph - N/A   Clear
7:00 AM 30 °F - 21 °F 58%  in 44 mi North 25.3 mph - -   Partly Cloudy
7:55 AM 32.0 °F 20.5 °F 21.2 °F 64% 29.98 in - NNW 18.4 mph - N/A   Clear
8:00 AM 32 °F - 21 °F 51%  in 44 mi NNW 18.4 mph - -   Scattered Clouds
8:55 AM 32.0 °F 21.2 °F 21.2 °F 64% 29.98 in - NNW 16.1 mph - N/A   Clear
9:00 AM 32 °F - 22 °F 54%  in 44 mi NNW 16.1 mph - -   Scattered Clouds
9:55 AM 33.8 °F 23.9 °F 23.0 °F 65% 29.98 in - NW 15.0 mph - N/A   Clear
10:00 AM 33 °F - 23 °F 55%  in 44 mi NW 15.0 mph - -   Scattered Clouds
10:55 AM 33.8 °F 23.5 °F 23.0 °F 65% 29.98 in - NNW 16.1 mph - N/A   Clear
11:00 AM 35 °F - 24 °F 51%  in 44 mi NNW 16.1 mph - -   Partly Cloudy
11:55 AM 35.6 °F 26.2 °F 23.0 °F 60% 29.98 in 6.2 mi North 15.0 mph - N/A   Scattered Clouds
12:00 PM 36 °F - 23 °F 47%  in 37 mi North 15.0 mph - -   Partly Cloudy
12:55 PM 35.6 °F 27.1 °F 23.0 °F 60% 29.98 in 6.2 mi North 12.7 mph - N/A   Scattered Clouds
1:00 PM 36 °F - 23 °F 47%  in 37 mi North 12.7 mph - -   Partly Cloudy
1:55 PM 37.4 °F 29.8 °F 24.8 °F 60% 29.98 in 6.2 mi North 11.5 mph - N/A   Scattered Clouds
2:00 PM 38 °F - 25 °F 46%  in 37 mi North 11.5 mph - -   Partly Cloudy
2:55 PM 39.2 °F 33.6 °F 26.6 °F 61% 29.98 in 6.2 mi North 8.1 mph - N/A   Mostly Cloudy
3:00 PM 40 °F - 26 °F 45%  in 37 mi North 8.1 mph - -   Mostly Cloudy
3:55 PM 39.2 °F 33.0 °F 24.8 °F 56% 29.98 in 6.2 mi North 9.2 mph - N/A   Mostly Cloudy
4:00 PM 40 °F - 24 °F 41%  in 37 mi North 9.2 mph - -   Mostly Cloudy
4:55 PM 41.0 °F 38.0 °F 24.8 °F 53% 30.01 in 6.2 mi North 4.6 mph - N/A   Mostly Cloudy
5:00 PM 41 °F - 25 °F 40%  in 37 mi North 4.6 mph - -   Mostly Cloudy
5:55 PM 41.0 °F 39.0 °F 26.6 °F 57% 29.98 in 6.2 mi North 3.5 mph - N/A   Scattered Clouds
6:00 PM 42 °F - 26 °F 40%  in 37 mi North 3.5 mph - -   Partly Cloudy
6:55 PM 41.0 °F 38.0 °F 26.6 °F 57% 30.01 in 6.2 mi SSW 4.6 mph - N/A   Scattered Clouds
7:00 PM 42 °F - 26 °F 40%  in 37 mi SSW 4.6 mph - -   Partly Cloudy
7:55 PM 41.0 °F 36.4 °F 26.6 °F 57% 30.04 in 6.2 mi WSW 6.9 mph - N/A   Partly Cloudy
8:00 PM 41 °F - 26 °F 42%  in 37 mi WSW 6.9 mph - -   Scattered Clouds
8:55 PM 39.2 °F 31.2 °F 26.6 °F 61% 30.04 in 6.2 mi SW 13.8 mph - N/A   Partly Cloudy
9:00 PM 40 °F - 26 °F 46%  in 37 mi SW 13.8 mph - -   Scattered Clouds
9:55 PM 39.2 °F 33.0 °F 26.6 °F 61% 30.04 in - SW 9.2 mph - N/A   Clear
10:00 PM 39 °F - 27 °F 50%  in 31 mi SW 9.2 mph - -   Partly Cloudy
10:55 PM 37.4 °F 32.1 °F 26.6 °F 65% 30.04 in - SSW 6.9 mph - N/A   Clear
11:00 PM 38 °F - 27 °F 54%  in 31 mi SSW 6.9 mph - -   Scattered Clouds
11:55 PM 37.4 °F 32.1 °F 28.4 °F 70% 30.04 in - SSW 6.9 mph - N/A   Clear